CW0608 Weather Reports


Display with metric or nautical units.
time (UTC)temp
F
wind
direction
speed
MPH
gust
MPH
rain 1hr
in
rain 24hr
in
rain mn
in
humidity
%
barometer
mb
20260831215804 80 45 1.0 3.0 0.00 0.00 0.00 82 1019.6
20260831214804 81 45 2.0 3.0 0.00 0.00 0.00 77 1019.6
20260831213804 81 49 2.0 3.0 0.00 0.00 0.00 78 1019.4
20260831213305 81 53 1.0 2.0 0.00 0.00 0.00 78 1019.4
20260831212804 81 53 0.0 2.0 0.00 0.00 0.00 81 1019.4
20260831212306 81 53 0.0 2.0 0.00 0.00 0.00 80 1019.4
20260831211804 80 53 0.0 2.0 0.00 0.00 0.00 79 1019.4
20260831211304 81 53 1.0 3.0 0.00 0.00 0.00 79 1019.5
20260831210304 81 54 2.0 3.0 0.00 0.00 0.00 77 1019.5
20260831205804 81 38 2.0 3.0 0.00 0.00 0.00 77 1019.5
20260831205305 82 0 0.0 3.0 0.00 0.00 0.00 77 1019.5
20260831204304 80 53 2.0 3.0 0.00 0.00 0.00 80 1019.6
20260831203804 80 54 2.0 3.0 0.00 0.00 0.00 78 1019.6
20260831203305 80 54 1.0 3.0 0.00 0.00 0.00 77 1019.6
20260831202306 80 56 2.0 3.0 0.00 0.00 0.00 76 1019.6
20260831201804 80 59 0.0 2.0 0.00 0.00 0.00 77 1019.7
20260831201304 80 59 1.0 2.0 0.00 0.00 0.00 77 1019.7
20260831200804 80 59 0.0 3.0 0.00 0.00 0.00 79 1019.6
20260831192306 82 57 2.0 5.0 0.00 0.00 0.00 73 1019.9
20260831191304 83 39 2.0 6.0 0.00 0.00 0.00 72 1019.9
20260831190804 83 52 4.0 6.0 0.00 0.00 0.00 71 1020.1
20260831185306 82 61 3.0 5.0 0.00 0.00 0.00 70 1020.2
20260831184304 82 58 2.0 5.0 0.00 0.00 0.00 70 1020.4
20260831183304 83 2 4.0 7.0 0.00 0.00 0.00 69 1020.4
20260831182305 83 61 4.0 9.0 0.00 0.00 0.00 71 1020.3
20260831181805 83 355 2.0 9.0 0.00 0.00 0.00 72 1020.4
20260831180804 83 49 1.0 6.0 0.00 0.00 0.00 70 1020.4
20260831174304 84 162 4.0 7.0 0.00 0.00 0.00 68 1020.5
20260831173804 84 144 1.0 5.0 0.00 0.00 0.00 72 1020.5
20260831163804 82 357 2.0 5.0 0.00 0.00 0.00 73 1020.9
20260831163304 81 25 3.0 5.0 0.00 0.00 0.00 76 1020.9
20260831162804 81 84 3.0 5.0 0.00 0.00 0.00 76 1020.9
20260831161805 80 75 3.0 6.0 0.00 0.00 0.00 75 1021.0
20260831160807 79 159 2.0 5.0 0.00 0.00 0.00 80 1020.9
20260831155804 78 12 3.0 7.0 0.00 0.00 0.00 80 1021.0
20260831155306 78 57 5.0 7.0 0.00 0.00 0.00 79 1021.0
20260831152804 78 0 3.0 6.0 0.00 0.00 0.00 82 1021.1
20260831152306 77 22 1.0 3.0 0.00 0.00 0.00 84 1021.1
20260831151304 76 24 0.0 5.0 0.00 0.00 0.00 84 1021.0
20260831150804 76 18 3.0 5.0 0.00 0.00 0.00 85 1020.9
20260831145804 76 73 3.0 6.0 0.00 0.00 0.00 84 1021.1
20260831144805 76 50 2.0 6.0 0.00 0.00 0.00 83 1021.2
20260831143805 77 16 3.0 5.0 0.00 0.00 0.00 86 1021.1
20260831143304 76 37 3.0 5.0 0.00 0.00 0.00 84 1021.1
20260831141804 76 58 3.0 8.0 0.00 0.00 0.00 85 1021.1
20260831141304 76 66 3.0 7.0 0.00 0.00 0.00 86 1021.1
20260831135804 75 49 1.0 6.0 0.00 0.00 0.00 87 1021.0
20260831134805 75 64 3.0 6.0 0.00 0.00 0.00 87 1021.0
20260831133803 74 13 0.0 3.0 0.00 0.00 0.00 89 1021.1
20260831132306 74 42 1.0 6.0 0.00 0.00 0.00 89 1021.0
20260831131804 74 26 1.0 6.0 0.00 0.00 0.00 90 1021.0
20260831130804 74 350 1.0 5.0 0.00 0.00 0.00 89 1021.1
20260831130304 74 27 1.0 6.0 0.00 0.00 0.00 89 1021.0
20260831124805 74 19 1.0 6.0 0.00 0.00 0.00 89 1021.0
20260831123804 74 24 1.0 6.0 0.00 0.00 0.00 88 1020.9
20260831123304 74 6 2.0 3.0 0.00 0.00 0.00 88 1020.9
20260831122805 74 33 1.0 7.0 0.00 0.00 0.00 88 1020.8
20260831122306 74 51 1.0 7.0 0.00 0.00 0.00 88 1020.8
20260831121304 74 67 2.0 10.0 0.00 0.00 0.00 89 1020.7
20260831120304 74 51 2.0 5.0 0.00 0.00 0.00 92 1020.6
20260831115306 73 111 1.0 3.0 0.00 0.00 0.00 93 1020.5
20260831114804 73 111 0.0 1.0 0.00 0.00 0.00 94 1020.5
20260831114304 73 111 0.0 2.0 0.00 0.00 0.00 95 1020.5
20260831113804 72 111 0.0 2.0 0.00 0.00 0.00 96 1020.5
20260831112307 72 111 0.0 0.0 0.00 0.00 0.00 96 1020.4
20260831111803 72 111 0.0 0.0 0.00 0.00 0.00 97 1020.3
20260831110803 71 111 0.0 0.0 0.00 0.00 0.00 96 1020.1
20260831110304 72 111 0.0 0.0 0.00 0.00 0.00 96 1020.1
20260831104304 71 111 0.0 1.0 0.00 0.00 0.00 96 1020.0
20260831103804 71 111 0.0 2.0 0.00 0.00 0.00 96 1019.9
20260831103304 71 111 0.0 2.0 0.00 0.00 0.00 96 1019.9
20260831102804 71 100 0.0 1.0 0.00 0.00 0.00 96 1019.9
20260831102306 72 100 0.0 1.0 0.00 0.00 0.00 96 1019.9
20260831101803 72 100 0.0 1.0 0.00 0.00 0.00 96 1019.9
20260831101304 72 100 0.0 1.0 0.00 0.00 0.00 96 1019.9
20260831100803 72 100 0.0 2.0 0.00 0.00 0.00 96 1019.9
20260831094805 72 178 0.0 2.0 0.00 0.00 0.00 97 1019.9
20260831094305 71 178 0.0 0.0 0.00 0.00 0.00 97 1019.8
20260831092805 72 178 0.0 0.0 0.00 0.00 0.00 97 1019.5
20260831092306 72 178 0.0 0.0 0.00 0.00 0.00 97 1019.5
20260831091305 72 178 0.0 0.0 0.00 0.00 0.00 97 1019.5
20260831085805 71 178 0.0 0.0 0.00 0.00 0.00 97 1019.5
20260831085306 71 178 0.0 0.0 0.00 0.00 0.00 97 1019.6
20260831080305 72 178 0.0 0.0 0.00 0.00 0.00 96 1019.5
20260831075805 72 178 0.0 0.0 0.00 0.00 0.00 96 1019.4
20260831075307 72 178 0.0 0.0 0.00 0.00 0.00 96 1019.5
20260831074805 72 178 0.0 0.0 0.00 0.00 0.00 96 1019.4
20260831072805 72 178 0.0 0.0 0.00 0.00 0.00 96 1019.5
20260831072306 72 178 0.0 0.0 0.00 0.00 0.00 96 1019.4
20260831071805 72 178 0.0 0.0 0.00 0.00 0.00 96 1019.4
20260831070305 72 178 0.0 0.0 0.00 0.00 0.00 95 1019.6
20260831065805 72 178 0.0 0.0 0.00 0.00 0.00 95 1019.7
20260831065306 73 178 0.0 0.0 0.00 0.00 0.00 95 1019.6
20260831064804 73 178 0.0 0.0 0.00 0.00 0.00 95 1019.6
20260831063804 73 178 0.0 0.0 0.00 0.00 0.00 95 1019.5
20260831063304 73 178 0.0 0.0 0.00 0.00 0.00 95 1019.6
20260831061805 73 178 0.0 0.0 0.00 0.00 0.00 95 1019.7
20260831061305 73 178 0.0 0.0 0.00 0.00 0.00 95 1019.8
20260831060305 73 178 0.0 0.0 0.00 0.00 0.00 95 1019.9
20260831055306 73 178 0.0 2.0 0.00 0.00 0.00 94 1019.9
20260831054804 74 180 0.0 1.0 0.00 0.00 0.00 94 1019.9
20260831054304 74 180 0.0 0.0 0.00 0.00 0.00 94 1019.9
20260831053805 74 180 0.0 0.0 0.00 0.00 0.00 94 1020.0
20260831053305 74 180 0.0 0.0 0.00 0.00 0.00 94 1020.0
20260831052804 74 180 0.0 0.0 0.00 0.00 0.00 94 1020.1
20260831052307 74 180 0.0 0.0 0.00 0.00 0.00 94 1020.0
20260831050805 74 180 0.0 0.0 0.00 0.00 0.00 94 1019.8
20260831045804 74 180 0.0 0.0 0.00 0.00 0.00 93 1019.8
20260831045306 74 180 0.0 1.0 0.00 0.00 0.00 93 1019.7
20260831043805 75 180 0.0 0.0 0.00 0.00 0.00 91 1019.6
20260831035805 75 180 0.0 1.0 0.00 0.00 0.00 91 1019.9
20260831035307 75 180 0.0 1.0 0.00 0.00 0.00 92 1020.0
20260831033306 75 180 0.0 1.0 0.00 0.00 0.00 92 1019.9
20260831032805 75 180 0.0 1.0 0.00 0.00 0.00 93 1020.0
20260831032306 75 180 0.0 1.0 0.00 0.00 0.00 93 1020.1
20260831031306 75 180 0.0 0.0 0.00 0.00 0.00 94 1020.2
20260831030805 75 180 0.0 1.0 0.00 0.00 0.00 94 1020.2
20260831030304 75 180 0.0 1.0 0.00 0.00 0.00 93 1020.2
20260831025805 75 180 0.0 1.0 0.00 0.00 0.00 93 1020.3
20260831025306 76 180 0.0 1.0 0.00 0.00 0.00 93 1020.4
20260831023805 76 180 0.0 1.0 0.00 0.00 0.00 92 1020.3
20260831023305 76 180 0.0 1.0 0.00 0.00 0.00 91 1020.3
20260831022805 77 180 0.0 1.0 0.00 0.00 0.00 90 1020.3
20260831022306 77 175 0.0 1.0 0.00 0.00 0.00 89 1020.2
20260831021804 78 175 0.0 2.0 0.00 0.00 0.00 89 1020.1
20260831021305 77 175 0.0 2.0 0.00 0.00 0.00 89 1020.2
20260831020806 77 174 0.0 2.0 0.00 0.00 0.00 91 1020.1
20260831020306 76 174 1.0 2.0 0.00 0.00 0.00 93 1020.1
20260831015306 76 182 0.0 1.0 0.00 0.00 0.00 93 1020.2
20260831014805 76 182 0.0 5.0 0.00 0.00 0.00 94 1020.2
20260831014304 76 182 0.0 5.0 0.00 0.00 0.00 94 1020.3
20260831013805 75 128 0.0 0.0 0.00 0.00 0.00 94 1020.4
20260831010805 75 128 0.0 0.0 0.00 0.00 0.00 94 1020.1
20260831005306 76 128 0.0 0.0 0.00 0.00 0.00 93 1020.0
20260831004805 76 128 0.0 0.0 0.00 0.00 0.00 93 1020.0
20260831003804 76 128 0.0 0.0 0.00 0.00 0.00 92 1019.9
20260831003304 76 128 0.0 1.0 0.00 0.00 0.00 92 1019.8
20260831002805 76 128 0.0 1.0 0.00 0.00 0.00 92 1019.8
20260831002306 76 128 0.0 1.0 0.00 0.00 0.00 92 1019.8
20260831001305 76 125 0.0 0.0 0.00 0.00 0.00 92 1019.6
20260830235306 77 125 0.0 0.0 0.00 0.00 0.00 90 1019.3
20260830234305 78 125 0.0 0.0 0.00 0.00 0.00 89 1019.3
20260830232804 78 125 1.0 2.0 0.00 0.00 0.00 88 1019.4
20260830231806 79 125 0.0 2.0 0.00 0.00 0.00 87 1019.5
20260830231305 79 125 0.0 2.0 0.00 0.00 0.00 87 1019.6
20260830225804 81 125 0.0 3.0 0.00 0.00 0.00 82 1019.6
20260830225306 81 125 1.0 3.0 0.00 0.00 0.00 82 1019.5
20260830224806 81 125 2.0 3.0 0.00 0.00 0.00 81 1019.6
20260830224304 82 127 1.0 3.0 0.00 0.00 0.00 81 1019.5
20260830223304 81 144 1.0 2.0 0.00 0.00 0.00 81 1019.6
20260830222804 81 144 1.0 3.0 0.00 0.00 0.00 81 1019.6
20260830222306 81 145 0.0 3.0 0.00 0.00 0.00 81 1019.5
20260830221806 81 82 0.0 3.0 0.00 0.00 0.00 82 1019.5
20260830220804 81 77 1.0 3.0 0.00 0.00 0.00 80 1019.5